User: anonymous   Login
Location: Alberta Star Party
(51.6612°N, 112.9089°W)
Time: 17:05:20
(UTC-06:00)
Language:

AO-Echo - Orbit

View from above orbital plane
View from above orbital plane
View from above satellite
View from above satellite

Ground track
Ground track

The orbit data is extracted from the following two-line orbital elements,

1 28375U 04025K   14294.82204120  .00000699  00000-0  22025-3 0  9746
2 28375 098.2647 237.4996 0082188 330.4035 029.2516 14.41464911542144
Epoch (UTC): 21 October 2014 19:43:44
Eccentricity: 0.0082188
inclination: 98.2647°
perigee height: 695 km
apogee height: 812 km
right ascension of ascending node: 237.4996°
argument of perigee: 330.4035°
revolutions per day: 14.41464911
mean anomaly at epoch: 29.2516°
orbit number at epoch: 54214

The dashed part of the orbit path shows where the satellite is in the earth's shadow,  

DLR